Weather History for Poplar Bluff, MO

Change the Weather History Date:

Sunday, March 10, 2013

  Actual Average Record
Temperature  
Mean Temperature 56 °F -  
Max Temperature 61 °F 58 °F 79 °F (1925)
Min Temperature 46 °F 34 °F 14 °F (1932)
Degree Days  
Heating Degree Days 10    
Growing Degree Days 6 (Base 50)    
Moisture  
Dew Point 49 °F    
Average Humidity 80    
Maximum Humidity 90    
Minimum Humidity 53    
Precipitation  
Precipitation 0.63 in - - ()
Sea Level Pressure  
Sea Level Pressure 29.76 in    
Wind  
Wind Speed 13 mph (South)    
Max Wind Speed 25 mph    
Max Gust Speed 36 mph    
Visibility 7 miles    
Events Rain    
Averages and records for this station are not official NWS values.
T = Trace of Precipitation, MM = Missing Value Source: NWS Daily Summary

Daily Weather History Graph

Daily Weather History Graph

Search for Another Location

Airport:

Trip Planner

Search our weather history database for the weather conditions in past years. The results will help you decide how hot, cold, wet, or windy it might be!

Date:

Astronomy

Mar. 10, 2013 Rise Set
Actual Time 7:19 AM CDT 7:04 PM CDT
Civil Twilight 6:53 AM CDT 7:30 PM CDT
Nautical Twilight 6:23 AM CDT 8:00 PM CDT
Astronomical Twilight 5:53 AM CDT 8:30 PM CDT
Moon 6:18 AM CDT (3/10) 6:12 PM CDT (3/10)
Length of Visible Light 12h 36m
Length of Day
11h 45m
Waning Crescent, 2% of the Moon is Illuminated
Mar 10
Waning Crescent
Mar 11
New
Mar 19
First Quarter
Mar 27
Full
Apr 2
Last Quarter

Hourly Weather History & Observations

Time (CDT) Temp. Dew Point Humidity Pressure Visibility Wind Dir Wind Speed Gust Speed Precip Events Conditions
12:53 AM 57.0 °F 39.9 °F 53% 29.86 in 10.0 mi SSE 12.7 mph - 0.00 in   Scattered Clouds
1:53 AM 55.9 °F 41.0 °F 57% 29.83 in 10.0 mi SSE 12.7 mph - N/A   Partly Cloudy
3:53 AM 57.9 °F 42.1 °F 56% 29.81 in 10.0 mi SSE 13.8 mph - 0.00 in   Partly Cloudy
4:53 AM 59.0 °F 46.0 °F 62% 29.81 in 10.0 mi South 9.2 mph - N/A   Scattered Clouds
5:14 AM 59.0 °F 46.4 °F 63% 29.81 in 10.0 mi South 9.2 mph - N/A   Mostly Cloudy
5:53 AM 59.0 °F 48.0 °F 67% 29.81 in 10.0 mi SSE 8.1 mph - N/A   Overcast
7:53 AM 61.0 °F 51.1 °F 70% 29.77 in 8.0 mi SSE 16.1 mph 25.3 mph N/A   Overcast
8:53 AM 60.1 °F 50.0 °F 69% 29.75 in 9.0 mi SSE 17.3 mph - N/A   Mostly Cloudy
9:53 AM 61.0 °F 50.0 °F 67% 29.75 in 10.0 mi SSE 23.0 mph 29.9 mph N/A   Overcast
10:53 AM 59.0 °F 53.1 °F 81% 29.74 in 4.0 mi SSE 16.1 mph 24.2 mph 0.02 in Rain Light Rain
11:06 AM 59.0 °F 53.6 °F 82% 29.73 in 7.0 mi SSE 13.8 mph - 0.02 in Rain Light Rain
11:35 AM 60.8 °F 53.6 °F 77% 29.70 in 9.0 mi SSE 19.6 mph 28.8 mph 0.02 in Rain Light Rain
11:53 AM 60.1 °F 53.1 °F 78% 29.69 in 6.0 mi SSE 25.3 mph 33.4 mph 0.02 in Rain Light Rain
12:47 PM 60.8 °F 55.4 °F 82% 29.73 in 2.0 mi SW 17.3 mph 27.6 mph 0.05 in Rain Rain
12:49 PM 59.0 °F 53.6 °F 82% 29.73 in 1.5 mi SW 18.4 mph 26.5 mph 0.10 in Rain Heavy Rain
12:53 PM 57.0 °F 54.0 °F 89% 29.74 in 1.2 mi SW 16.1 mph 25.3 mph 0.18 in Rain Heavy Rain
1:00 PM 57.2 °F 53.6 °F 88% 29.75 in 1.8 mi WSW 19.6 mph 27.6 mph 0.05 in Rain Rain
1:05 PM 55.4 °F 51.8 °F 88% 29.75 in 3.0 mi West 25.3 mph 35.7 mph 0.05 in Rain Rain
1:11 PM 53.6 °F 48.2 °F 82% 29.75 in 4.0 mi WNW 24.2 mph 35.7 mph 0.09 in Rain Light Rain
1:53 PM 53.1 °F 48.9 °F 86% 29.75 in 6.0 mi WNW 13.8 mph 18.4 mph 0.12 in Rain Rain
2:53 PM 53.1 °F 48.9 °F 86% 29.79 in 2.5 mi West 6.9 mph - 0.06 in Rain Rain
3:01 PM 53.6 °F 48.2 °F 82% 29.78 in 1.2 mi Calm Calm - 0.06 in Rain Heavy Rain
3:09 PM 53.6 °F 50.0 °F 88% 29.78 in 3.0 mi Calm Calm - 0.09 in Rain Light Rain
3:53 PM 53.1 °F 50.0 °F 89% 29.75 in 10.0 mi ESE 5.8 mph - 0.15 in Rain Light Rain
4:53 PM 53.1 °F 50.0 °F 89% 29.74 in 6.0 mi SE 6.9 mph - 0.05 in Rain Light Rain
5:08 PM 53.6 °F 50.0 °F 88% 29.73 in 10.0 mi ESE 4.6 mph - 0.00 in   Overcast
5:17 PM 53.6 °F 50.0 °F 88% 29.74 in 10.0 mi Calm Calm - 0.00 in   Overcast
5:53 PM 54.0 °F 51.1 °F 90% 29.75 in 10.0 mi SSE 6.9 mph - 0.00 in   Overcast
6:53 PM 54.0 °F 51.1 °F 90% 29.75 in 10.0 mi SSE 5.8 mph - N/A   Overcast
7:31 PM 53.6 °F 50.0 °F 88% 29.76 in 10.0 mi SSE 9.2 mph - N/A   Overcast
7:53 PM 53.1 °F 50.0 °F 89% 29.76 in 10.0 mi SSE 12.7 mph - N/A   Overcast
8:04 PM 53.6 °F 50.0 °F 88% 29.76 in 10.0 mi SSE 10.4 mph - N/A   Overcast
8:14 PM 53.6 °F 50.0 °F 88% 29.76 in 10.0 mi SSE 10.4 mph - N/A   Overcast
8:53 PM 53.1 °F 50.0 °F 89% 29.76 in 10.0 mi South 10.4 mph - N/A   Overcast
9:48 PM 50.0 °F 46.4 °F 87% 29.78 in 5.0 mi West 10.4 mph - N/A Rain Light Rain
9:53 PM 50.0 °F 45.0 °F 83% 29.78 in 6.0 mi West 10.4 mph - 0.03 in Rain Light Rain
10:20 PM 50.0 °F 44.6 °F 82% 29.78 in 10.0 mi West 6.9 mph - 0.00 in   Overcast
10:53 PM 50.0 °F 43.0 °F 77% 29.80 in 10.0 mi WSW 6.9 mph - 0.00 in   Overcast
12:53 AM 46.9 °F 39.9 °F 77% 29.80 in 10.0 mi WSW 8.1 mph - N/A   Mostly Cloudy